Theta_e
315 315 315 316 317 316 313 309 300 304 314 304 303 298 298 301 302 305 301 300 301 299 300 298 299 298 300 303 302 297 301 298 294 296 298 299 298 298 298 295 296 296 298 300
314 314 315 315 315 313 313 303 303 305 304 294 298 301 301 300 301 301 301 299 301 302 299 296 300 300 302 302 301 300 301 296 292 294 296 296 294 297 298 299 299 298 296 299
313 313 313 314 314 314 313 303 296 297 298 300 295 301 298 297 303 302 302 301 302 300 298 301 299 299 301 302 301 303 304 298 295 293 296 299 293 295 297 297 294 295 298 301
312 313 313 313 313 313 310 303 298 299 291 292 296 298 300 297 296 302 303 299 300 299 296 297 297 300 300 300 303 300 301 294 298 298 299 297 297 296 296 294 296 295 298 300
312 312 312 312 312 312 306 298 298 300 296 297 297 297 298 299 299 299 300 298 300 299 297 298 297 300 300 300 300 299 301 295 297 295 298 297 295 297 297 296 296 297 299 299
311 311 311 311 311 310 304 305 305 300 298 296 295 295 299 299 301 302 303 303 301 299 300 303 304 305 305 304 301 298 299 296 295 291 297 296 292 296 297 298 299 298 295 301
310 310 311 311 311 309 308 305 305 297 290 294 295 297 298 298 300 300 303 304 302 305 309 307 305 304 303 303 302 304 299 298 297 293 295 286 298 301 302 299 300 301 301 303
309 310 310 311 311 310 309 308 302 295 289 295 295 297 298 300 302 300 302 304 307 310 306 300 296 296 296 298 300 300 302 299 298 292 292 296 298 298 299 298 299 304 303 304
308 309 309 310 310 310 309 309 310 300 290 289 295 293 296 296 297 300 301 304 304 302 299 295 291 289 292 292 294 301 301 301 297 296 290 287 298 300 306 303 295 305 306 305
308 308 309 308 309 310 309 306 309 301 292 294 296 293 294 299 298 296 300 301 300 301 296 293 290 291 296 291 291 290 293 295 292 294 292 295 302 302 305 293 299 307 308 308
308 308 308 308 308 309 308 304 308 300 294 295 297 298 296 296 295 293 300 299 300 294 291 293 294 294 297 295 296 295 292 291 292 294 291 289 305 301 298 304 310 308 308 310
307 307 308 308 308 308 308 302 308 309 298 295 302 301 302 302 300 297 297 300 300 300 295 296 298 296 299 298 292 300 293 297 295 296 296 304 306 305 307 309 309 310 311 311
306 306 307 308 307 308 307 305 307 304 296 295 296 295 301 305 304 306 292 297 302 302 306 302 297 294 301 295 296 297 300 302 298 299 303 303 305 307 308 310 309 310 312 311
306 306 307 307 307 307 307 304 307 303 297 288 292 303 299 304 304 304 305 301 302 304 302 297 298 294 302 298 300 299 301 302 298 299 302 305 307 308 308 309 310 309 310 310
306 306 307 306 306 307 307 307 307 307 296 287 290 297 301 303 303 301 302 301 301 298 293 294 293 298 299 301 301 297 303 300 298 296 302 303 304 308 308 307 308 310 309 308
306 305 306 306 306 306 303 294 305 308 305 292 285 297 296 299 301 302 302 300 301 299 296 295 298 301 298 293 293 301 303 305 305 303 306 306 307 308 309 308 309 310 309 310
305 305 305 305 305 304 296 293 302 306 306 292 285 288 296 298 298 299 300 303 301 302 297 295 295 297 298 294 291 300 304 306 306 307 306 303 305 304 308 308 309 310 310 311
304 305 305 305 305 303 298 303 304 305 298 295 285 286 292 298 295 294 301 298 299 297 296 296 295 296 296 289 296 300 303 304 305 306 307 306 307 307 307 308 308 307 307 308
304 304 304 303 300 296 297 304 305 305 296 285 285 284 284 298 296 297 297 298 291 298 292 293 294 291 288 293 297 299 302 302 303 305 306 306 306 306 306 307 307 306 306 308
303 302 295 287 293 305 304 299 291 291 288 288 285 291 286 293 293 291 292 292 289 285 290 296 290 289 296 300 302 303 304 304 305 302 302 304 304 305 306 305 306 307 307 307
298 290 287 297 302 299 293 285 285 285 284 285 289 291 289 295 288 286 292 287 287 284 289 288 286 287 294 300 301 303 305 305 306 306 306 307 307 306 306 306 307 307 307 307
297 296 298 297 291 287 283 284 285 284 284 290 289 291 293 294 296 291 289 286 286 283 294 287 284 292 299 300 301 302 304 304 304 306 306 307 307 307 307 307 307 307 307 308
299 292 286 285 285 281 280 279 283 284 289 292 292 289 292 291 293 289 286 284 284 293 285 285 290 296 299 301 302 303 304 305 305 305 306 306 306 307 307 306 307 308 307 308
287 284 281 282 282 283 286 286 288 291 292 292 292 290 290 291 286 285 283 286 286 284 283 284 293 297 300 302 303 303 303 304 304 305 306 305 305 305 306 307 308 307 306 307
285 285 280 283 288 291 291 292 291 292 293 293 292 291 291 286 286 285 286 283 282 284 285 292 297 298 297 298 298 299 300 301 301 303 304 305 305 305 305 306 307 308 307 305
285 285 283 287 285 286 289 288 287 293 293 294 294 286 285 285 285 284 284 284 283 289 293 295 294 293 294 295 295 295 296 296 297 299 300 303 304 304 305 305 305 304 304 303
284 284 288 288 287 287 288 289 289 293 290 286 285 284 284 286 284 284 289 287 290 290 291 292 291 290 290 292 293 293 294 295 297 298 299 301 302 300 298 296 297 297 297 297
Wind_Speed
10 10 9 9 8 5 4 2 4 2 7 9 6 14 19 12 12 11 7 6 8 10 9 10 12 10 9 4 9 10 17 7 11 10 5 4 10 13 16 6 6 5 3 6
12 11 10 8 7 10 3 4 2 3 3 7 12 9 18 25 20 17 12 9 8 6 7 7 14 5 5 8 12 8 13 9 8 7 3 4 9 14 15 18 4 10 5 3
12 12 11 9 8 9 5 3 4 1 2 4 5 18 18 22 18 22 19 15 16 9 11 12 4 7 4 8 10 4 4 11 13 11 5 3 8 15 21 19 10 10 15 13
14 13 13 13 10 10 5 5 4 5 5 7 8 11 8 20 21 20 14 19 21 16 18 17 16 12 5 7 7 4 7 10 15 20 19 5 10 10 19 24 25 16 15 20
16 16 14 14 12 12 7 4 5 2 1 7 21 19 22 25 19 26 22 23 17 24 23 20 14 18 14 11 12 11 8 10 10 18 16 18 21 20 16 21 24 25 25 24
18 17 16 13 15 13 6 7 7 3 5 6 8 15 21 23 20 25 28 21 21 25 22 23 22 18 10 10 10 16 11 9 11 16 17 10 18 26 26 24 19 21 22 24
19 18 17 17 16 16 9 9 5 7 14 9 11 12 15 19 25 24 18 26 28 21 17 21 17 17 19 19 17 11 10 14 10 9 5 15 11 2 17 28 24 25 21 20
20 19 19 20 18 19 10 9 6 5 8 12 17 22 24 19 22 24 22 25 19 18 18 17 21 17 24 27 24 23 19 14 6 9 14 19 21 5 5 12 20 24 21 23
21 20 19 20 20 19 11 9 8 6 5 10 13 14 14 17 15 22 25 18 13 11 8 10 21 14 16 12 13 25 20 19 15 10 11 14 4 7 17 8 16 16 22 25
22 21 21 22 21 20 12 8 14 7 9 6 10 8 10 5 6 6 12 17 16 8 10 13 14 19 16 19 21 8 14 16 21 17 19 16 15 9 11 10 2 6 11 16
22 22 22 22 22 21 13 11 12 10 6 12 16 16 20 12 8 10 6 8 14 5 12 14 12 15 19 20 23 17 16 13 12 16 20 28 3 11 16 5 2 2 2 3
24 22 23 22 24 21 17 9 9 10 11 4 14 23 25 22 19 7 7 13 13 12 9 9 9 14 12 20 19 22 20 15 14 13 12 12 10 16 16 19 11 7 4 2
23 23 22 23 23 21 18 10 8 7 8 10 9 19 24 20 20 15 8 10 10 13 13 10 9 12 14 16 18 24 23 18 19 16 20 19 12 15 13 13 16 14 8 5
22 21 22 22 22 21 19 10 8 9 4 4 5 16 27 29 23 24 19 17 15 10 5 5 6 6 13 15 16 18 13 17 22 21 22 18 15 17 14 15 14 13 11 12
20 20 21 20 20 21 13 9 9 10 10 3 4 10 16 20 23 26 23 21 16 8 6 6 5 6 12 13 13 14 16 21 17 15 18 19 21 17 17 18 17 15 14 14
17 17 19 18 18 15 5 6 10 12 11 6 5 8 24 20 20 21 21 18 18 12 7 6 5 5 8 8 17 22 21 21 22 20 18 20 20 19 20 20 17 16 17 14
16 15 15 15 15 8 8 5 1 10 12 6 5 5 12 21 21 15 13 16 9 9 9 7 6 5 9 7 14 16 19 24 26 24 20 22 24 19 18 18 17 14 13 14
16 15 14 13 14 11 12 12 11 1 4 6 5 6 7 19 13 13 12 12 9 7 7 4 7 7 7 8 10 24 26 27 29 25 23 22 20 20 21 19 17 19 17 15
15 14 15 6 5 6 8 9 13 7 7 3 3 5 4 3 11 8 6 8 11 6 4 5 7 8 10 8 19 27 26 26 28 31 31 28 25 22 20 21 21 20 17 14
14 5 3 3 4 0 8 5 4 6 5 6 6 7 8 4 3 5 5 4 6 7 9 6 7 8 16 17 21 23 25 29 27 27 26 27 29 28 24 21 17 17 16 15
3 4 5 3 2 4 4 6 5 5 6 6 8 15 12 8 9 3 5 4 5 4 6 9 6 8 19 26 30 31 29 30 30 29 28 26 25 25 24 25 27 22 18 16
4 4 2 1 3 3 7 6 5 8 8 8 7 11 13 7 5 7 5 5 5 8 8 6 6 12 26 29 33 34 32 36 30 27 28 28 26 27 25 23 21 22 22 20
2 1 2 4 5 9 9 11 6 6 5 4 7 6 5 2 5 4 4 7 9 5 5 7 8 13 21 28 26 28 30 26 22 26 26 27 27 26 24 24 23 20 19 16
5 6 9 8 7 8 8 7 9 10 8 9 9 8 7 5 6 4 7 5 2 6 8 21 16 20 21 15 17 17 18 16 18 19 23 28 27 25 23 21 18 18 17 10
5 5 8 11 8 4 3 4 4 3 4 6 6 3 3 3 5 5 2 4 6 8 16 9 4 5 7 8 7 10 11 12 13 14 17 20 22 20 20 18 15 12 5 8
4 7 5 3 3 8 7 7 6 5 8 8 5 4 5 7 5 8 10 7 11 5 5 5 6 7 8 9 10 10 9 10 12 12 13 12 12 12 12 7 5 4 6 7
7 6 6 7 7 7 5 6 7 6 7 9 5 10 10 3 5 7 6 5 5 5 5 4 5 7 8 8 9 9 9 8 8 9 10 7 4 11 12 14 12 14 13 13
Wind_Direction
260 262 264 279 293 336 166 184 244 337 246 198 212 228 221 255 252 198 259 280 272 257 213 212 226 241 228 187 167 200 214 269 237 218 107 303 279 227 219 245 194 253 324 283
256 253 250 255 266 180 155 248 267 12 327 211 218 224 233 238 244 231 226 239 234 223 228 231 215 232 48 168 193 204 173 222 230 207 204 198 228 222 242 236 292 236 207 230
259 245 244 240 238 212 247 281 221 192 240 292 272 222 218 224 228 244 242 251 251 233 237 233 287 228 167 200 223 32 230 253 231 226 44 84 208 214 212 221 225 231 229 259
255 252 233 237 226 235 212 212 254 184 192 229 235 247 226 216 230 228 223 242 240 237 244 239 228 242 178 188 202 221 223 245 241 252 271 225 268 217 211 220 229 240 248 238
252 254 250 237 228 223 232 257 221 164 189 209 221 225 227 239 218 233 220 237 235 234 243 242 236 234 229 233 181 202 216 242 251 265 264 261 250 244 222 225 236 245 257 267
252 248 248 240 231 211 237 231 275 262 192 207 207 222 230 233 233 234 238 246 228 242 241 249 262 269 259 268 185 203 200 223 232 262 257 270 261 238 233 227 220 226 236 241
249 249 245 241 231 220 234 249 264 243 254 238 235 229 235 232 237 241 238 232 247 251 239 264 257 268 267 251 242 225 212 219 235 253 247 246 252 56 225 223 225 227 244 248
250 244 244 243 236 230 231 236 224 260 269 255 252 241 238 237 243 240 246 251 250 268 255 239 249 250 248 236 237 233 231 230 237 226 233 268 267 220 171 200 240 235 245 241
250 247 244 243 239 232 233 235 226 229 252 235 268 286 294 243 230 238 235 238 266 297 287 215 225 224 227 223 228 210 219 232 229 218 232 238 88 341 193 191 268 236 219 233
253 248 242 243 239 237 227 238 224 230 244 223 246 234 278 291 243 241 231 220 223 204 224 233 226 235 242 229 213 170 203 203 222 226 241 259 252 132 143 195 325 14 217 232
252 253 245 241 238 235 226 240 226 225 237 240 242 234 250 262 241 270 222 228 201 152 214 222 218 236 224 240 241 188 181 192 207 227 232 250 255 149 199 201 75 306 228 250
251 248 245 240 238 234 223 244 232 225 237 261 242 231 240 237 244 272 276 296 197 192 199 236 226 240 228 228 234 227 215 207 209 198 227 268 181 224 209 249 272 282 278 223
246 245 242 239 237 232 223 231 229 222 246 249 228 231 234 240 239 225 231 260 286 242 220 227 225 250 221 239 222 235 223 221 228 259 237 241 253 220 243 234 245 259 254 250
245 242 240 236 234 230 225 227 222 223 255 262 264 240 232 235 232 223 212 237 262 287 287 278 243 233 237 247 249 242 234 218 231 246 247 264 243 237 246 245 246 259 258 241
246 241 238 236 228 227 230 237 230 219 218 277 281 320 258 228 227 236 232 228 226 240 257 263 243 251 254 258 259 240 243 236 240 237 244 252 252 237 228 243 250 249 247 252
246 243 239 235 231 225 220 242 217 214 209 245 245 248 233 241 246 243 236 230 237 240 237 229 231 232 233 241 241 242 251 257 261 267 258 252 266 272 261 257 239 247 253 245
249 246 245 238 230 212 212 206 49 192 180 224 240 220 227 229 220 230 236 248 226 220 238 231 239 219 216 239 240 246 241 243 255 268 271 267 259 263 267 267 266 269 265 259
247 244 244 241 237 236 235 235 249 113 273 211 212 223 237 202 210 215 210 221 221 222 229 203 223 216 222 236 228 244 247 257 268 267 268 275 269 256 257 259 258 266 257 260
242 244 244 258 224 222 230 191 203 212 214 249 278 211 257 161 222 218 212 213 219 199 234 224 198 223 225 190 224 239 238 233 237 243 248 252 263 263 260 252 258 245 247 259
237 238 213 241 214 293 141 170 208 205 204 209 229 172 211 211 247 220 211 205 214 203 221 204 222 241 256 234 241 246 243 241 243 246 245 237 242 244 240 246 256 261 252 242
200 188 208 236 303 189 198 211 211 178 205 209 231 216 228 186 220 206 277 213 193 219 193 210 187 222 234 234 240 245 246 247 246 240 244 250 247 242 244 244 243 243 250 249
167 144 136 221 201 204 252 183 182 205 214 197 218 212 203 190 196 206 191 240 202 231 155 204 223 219 222 228 229 237 240 243 245 243 245 246 240 241 246 250 242 233 234 235
137 79 177 185 191 224 211 200 199 212 210 176 190 174 176 137 205 193 206 235 211 99 198 236 214 233 239 234 230 239 247 249 243 242 239 247 244 242 238 238 243 245 238 236
178 200 214 208 200 223 213 226 222 212 233 194 192 168 183 176 190 192 227 219 170 216 219 224 217 212 234 248 251 246 251 255 248 237 230 235 236 236 236 243 237 239 237 224
200 200 229 213 231 244 262 297 298 269 284 213 200 152 166 183 218 205 250 217 219 224 246 264 257 305 325 294 276 269 266 266 272 272 250 239 238 232 227 232 245 241 207 156
221 228 247 243 242 253 240 236 234 222 241 232 184 172 205 201 211 193 209 219 226 260 238 18 2 340 315 309 308 302 301 293 281 270 273 264 241 232 228 218 171 162 142 146
222 217 223 255 280 262 257 227 231 186 214 202 239 188 199 136 217 211 208 257 358 0 355 7 6 344 331 323 313 314 308 287 273 279 261 241 110 109 119 112 102 98 95 101